Time,TemperatureF,DewpointF,PressureIn,WindDirection,WindDirectionDegrees,WindSpeedMPH,WindSpeedGustMPH,Humidity,HourlyPrecipIn,Conditions,Clouds,dailyrainin,SoftwareType,DateUTC
2013-01-08 00:03:00,26.0,23.0,29.88,WSW,245,0.0,1.0,90,0.00,,,-99.99,,2013-01-08 05:03:00,
2013-01-08 00:12:00,26.0,23.0,29.88,WSW,245,0.0,1.0,90,0.00,,,-99.99,,2013-01-08 05:12:00,
2013-01-08 00:22:00,25.0,23.0,29.88,WSW,245,0.0,0.0,92,0.00,,,-99.99,,2013-01-08 05:22:00,
2013-01-08 00:33:00,25.0,22.0,29.88,SW,225,0.0,0.0,89,0.00,,,-99.99,,2013-01-08 05:33:00,
2013-01-08 00:42:00,25.0,22.0,29.88,SW,225,0.0,0.0,89,0.00,,,-99.99,,2013-01-08 05:42:00,
2013-01-08 00:53:00,25.0,23.0,29.88,WSW,258,0.0,0.0,92,0.00,,,-99.99,,2013-01-08 05:53:00,
2013-01-08 01:02:00,25.0,23.0,29.88,WSW,247,0.0,0.0,93,0.00,,,-99.99,,2013-01-08 06:02:00,
2013-01-08 01:12:00,25.0,23.0,29.88,WSW,247,0.0,0.0,93,0.00,,,-99.99,,2013-01-08 06:12:00,
2013-01-08 01:22:00,25.0,23.0,29.88,SW,230,0.0,0.0,93,0.00,,,-99.99,,2013-01-08 06:22:00,
2013-01-08 01:33:00,25.0,23.0,29.88,WSW,257,0.0,0.0,93,0.00,,,-99.99,,2013-01-08 06:33:00,
2013-01-08 01:42:00,25.0,23.0,29.88,WSW,257,0.0,0.0,93,0.00,,,-99.99,,2013-01-08 06:42:00,
2013-01-08 01:53:00,26.0,24.0,29.88,WSW,247,0.0,0.0,93,0.00,,,-99.99,,2013-01-08 06:53:00,
2013-01-08 02:02:00,26.0,24.0,29.88,West,259,0.0,0.0,93,0.00,,,-99.99,,2013-01-08 07:02:00,
2013-01-08 02:12:00,26.0,24.0,29.88,West,259,0.0,0.0,93,0.00,,,-99.99,,2013-01-08 07:12:00,
2013-01-08 02:22:00,26.0,24.0,29.88,SW,227,0.0,0.0,93,0.00,,,-99.99,,2013-01-08 07:22:00,
2013-01-08 02:32:00,26.0,24.0,29.88,SW,231,0.0,0.0,93,0.00,,,-99.99,,2013-01-08 07:32:00,
2013-01-08 02:42:00,26.0,24.0,29.88,SW,231,0.0,0.0,93,0.00,,,-99.99,,2013-01-08 07:42:00,
2013-01-08 02:52:00,26.0,24.0,29.88,SW,231,0.0,0.0,93,0.00,,,-99.99,,2013-01-08 07:52:00,
2013-01-08 03:02:00,26.0,25.0,29.85,WSW,247,0.0,0.0,94,0.00,,,-99.99,,2013-01-08 08:02:00,
2013-01-08 03:12:00,26.0,25.0,29.85,WSW,247,0.0,0.0,94,0.00,,,-99.99,,2013-01-08 08:12:00,
2013-01-08 03:22:00,26.0,25.0,29.85,WSW,247,0.0,0.0,95,0.00,,,-99.99,,2013-01-08 08:22:00,
2013-01-08 03:32:00,26.0,25.0,29.85,WSW,247,0.0,0.0,95,0.00,,,-99.99,,2013-01-08 08:32:00,
2013-01-08 03:42:00,26.0,25.0,29.85,WSW,247,0.0,0.0,95,0.00,,,-99.99,,2013-01-08 08:42:00,
2013-01-08 03:53:00,26.0,25.0,29.85,WSW,243,0.0,0.0,96,0.00,,,-99.99,,2013-01-08 08:53:00,
2013-01-08 04:02:00,26.0,25.0,29.85,WSW,249,0.0,0.0,97,0.00,,,-99.99,,2013-01-08 09:02:00,
2013-01-08 04:12:00,26.0,25.0,29.85,SW,225,0.0,0.0,97,0.00,,,-99.99,,2013-01-08 09:12:00,
2013-01-08 04:22:00,26.0,25.0,29.85,SW,225,0.0,0.0,97,0.00,,,-99.99,,2013-01-08 09:22:00,
2013-01-08 04:32:00,26.0,25.0,29.85,SW,228,0.0,0.0,97,0.00,,,-99.99,,2013-01-08 09:32:00,
2013-01-08 04:42:00,26.0,25.0,29.85,SW,228,0.0,0.0,97,0.00,,,-99.99,,2013-01-08 09:42:00,
2013-01-08 04:52:00,25.0,25.0,29.85,WSW,253,0.0,1.0,99,0.00,,,-99.99,,2013-01-08 09:52:00,
2013-01-08 05:02:00,27.0,26.0,29.85,WSW,251,1.0,2.0,94,0.00,,,-99.99,,2013-01-08 10:02:00,
2013-01-08 05:12:00,27.0,26.0,29.85,WSW,251,1.0,2.0,94,0.00,,,-99.99,,2013-01-08 10:12:00,
2013-01-08 05:22:00,28.0,26.0,29.85,West,259,1.0,2.0,92,0.00,,,-99.99,,2013-01-08 10:22:00,
2013-01-08 05:32:00,30.0,27.0,29.85,WSW,255,1.0,3.0,88,0.00,,,-99.99,,2013-01-08 10:32:00,
2013-01-08 05:42:00,30.0,27.0,29.85,WSW,255,1.0,3.0,88,0.00,,,-99.99,,2013-01-08 10:42:00,
2013-01-08 05:52:00,30.0,26.0,29.86,West,265,1.0,2.0,86,0.00,,,-99.99,,2013-01-08 10:52:00,
2013-01-08 06:02:00,30.0,27.0,29.88,WSW,250,1.0,3.0,88,0.00,,,-99.99,,2013-01-08 11:02:00,
2013-01-08 06:12:00,30.0,27.0,29.88,WSW,246,1.0,2.0,88,0.00,,,-99.99,,2013-01-08 11:12:00,
2013-01-08 06:22:00,30.0,27.0,29.88,WSW,246,1.0,2.0,88,0.00,,,-99.99,,2013-01-08 11:22:00,
2013-01-08 06:33:00,31.0,27.0,29.88,WSW,250,1.0,3.0,85,0.00,,,-99.99,,2013-01-08 11:33:00,
2013-01-08 06:42:00,31.0,27.0,29.88,WSW,250,1.0,3.0,85,0.00,,,-99.99,,2013-01-08 11:42:00,
2013-01-08 06:53:00,31.0,27.0,29.88,WSW,250,1.0,3.0,84,0.00,,,-99.99,,2013-01-08 11:53:00,
2013-01-08 07:03:00,32.0,28.0,29.88,WSW,243,1.0,4.0,84,0.00,,,-99.99,,2013-01-08 12:03:00,
2013-01-08 07:12:00,32.0,28.0,29.88,WSW,243,1.0,4.0,84,0.00,,,-99.99,,2013-01-08 12:12:00,
2013-01-08 07:22:00,32.0,28.0,29.88,WSW,245,2.0,4.0,84,0.00,,,-99.99,,2013-01-08 12:22:00,
2013-01-08 07:33:00,33.0,28.0,29.88,WSW,249,2.0,5.0,81,0.00,,,-99.99,,2013-01-08 12:33:00,
2013-01-08 07:42:00,33.0,28.0,29.88,WSW,249,2.0,5.0,81,0.00,,,-99.99,,2013-01-08 12:42:00,
2013-01-08 07:53:00,33.0,28.0,29.88,WSW,251,2.0,5.0,80,0.00,,,-99.99,,2013-01-08 12:53:00,
2013-01-08 08:03:00,34.0,28.0,29.88,West,263,2.0,5.0,78,0.00,,,-99.99,,2013-01-08 13:03:00,
2013-01-08 08:12:00,34.0,28.0,29.88,West,263,2.0,5.0,78,0.00,,,-99.99,,2013-01-08 13:12:00,
2013-01-08 08:22:00,35.0,28.0,29.88,West,260,2.0,5.0,76,0.00,,,-99.99,,2013-01-08 13:22:00,
2013-01-08 08:33:00,36.0,29.0,29.88,WSW,253,2.0,5.0,75,0.00,,,-99.99,,2013-01-08 13:33:00,
2013-01-08 08:43:00,36.0,29.0,29.88,WSW,253,2.0,5.0,75,0.00,,,-99.99,,2013-01-08 13:43:00,
2013-01-08 08:53:00,37.0,29.0,29.90,WSW,242,1.0,4.0,72,0.00,,,-99.99,,2013-01-08 13:53:00,
2013-01-08 09:02:00,40.0,31.0,29.91,WSW,248,1.0,4.0,69,0.00,,,-99.99,,2013-01-08 14:02:00,
2013-01-08 09:12:00,40.0,31.0,29.91,WSW,248,1.0,4.0,69,0.00,,,-99.99,,2013-01-08 14:12:00,
2013-01-08 09:23:00,43.0,32.0,29.91,WSW,251,2.0,4.0,64,0.00,,,-99.99,,2013-01-08 14:23:00,
2013-01-08 09:33:00,44.0,32.0,29.91,West,272,1.0,3.0,63,0.00,,,-99.99,,2013-01-08 14:33:00,
2013-01-08 09:43:00,44.0,32.0,29.91,West,272,1.0,3.0,63,0.00,,,-99.99,,2013-01-08 14:43:00,
2013-01-08 09:53:00,46.0,32.0,29.91,WSW,254,2.0,5.0,59,0.00,,,-99.99,,2013-01-08 14:53:00,
2013-01-08 10:03:00,47.0,32.0,29.91,WSW,250,2.0,5.0,55,0.00,,,-99.99,,2013-01-08 15:03:00,
2013-01-08 10:12:00,47.0,32.0,29.91,WSW,250,2.0,5.0,55,0.00,,,-99.99,,2013-01-08 15:12:00,
2013-01-08 10:22:00,49.0,32.0,29.89,WSW,255,3.0,7.0,52,0.00,,,-99.99,,2013-01-08 15:22:00,
2013-01-08 10:33:00,48.0,31.0,29.89,West,260,4.0,6.0,52,0.00,,,-99.99,,2013-01-08 15:33:00,
2013-01-08 10:43:00,48.0,31.0,29.89,West,260,4.0,6.0,52,0.00,,,-99.99,,2013-01-08 15:43:00,
2013-01-08 10:53:00,49.0,31.0,29.88,West,260,3.0,6.0,49,0.00,,,-99.99,,2013-01-08 15:53:00,
2013-01-08 11:03:00,49.0,31.0,29.88,West,264,3.0,7.0,49,0.00,,,-99.99,,2013-01-08 16:03:00,
2013-01-08 11:12:00,49.0,31.0,29.88,West,264,3.0,7.0,49,0.00,,,-99.99,,2013-01-08 16:12:00,
2013-01-08 11:23:00,51.0,31.0,29.88,West,268,3.0,8.0,46,0.00,,,-99.99,,2013-01-08 16:23:00,
2013-01-08 11:34:00,51.0,31.0,29.88,WSW,257,3.0,7.0,46,0.00,,,-99.99,,2013-01-08 16:34:00,
2013-01-08 11:42:00,51.0,31.0,29.88,WSW,257,3.0,7.0,46,0.00,,,-99.99,,2013-01-08 16:42:00,
2013-01-08 11:53:00,50.0,30.0,29.88,WSW,251,4.0,8.0,46,0.00,,,-99.99,,2013-01-08 16:53:00,
2013-01-08 12:03:00,52.0,31.0,29.85,WSW,256,3.0,6.0,45,0.00,,,-99.99,,2013-01-08 17:03:00,
2013-01-08 12:13:00,52.0,31.0,29.85,WSW,256,3.0,6.0,45,0.00,,,-99.99,,2013-01-08 17:13:00,
2013-01-08 12:23:00,52.0,31.0,29.85,West,260,3.0,6.0,45,0.00,,,-99.99,,2013-01-08 17:23:00,
2013-01-08 12:33:00,52.0,31.0,29.85,WSW,248,3.0,7.0,45,0.00,,,-99.99,,2013-01-08 17:33:00,
2013-01-08 12:43:00,52.0,31.0,29.85,WSW,248,3.0,7.0,45,0.00,,,-99.99,,2013-01-08 17:43:00,
2013-01-08 12:54:00,52.0,31.0,29.85,WSW,249,3.0,7.0,45,0.00,,,-99.99,,2013-01-08 17:54:00,
2013-01-08 13:03:00,55.0,33.0,29.85,WSW,243,3.0,6.0,44,0.00,,,-99.99,,2013-01-08 18:03:00,
2013-01-08 13:13:00,55.0,33.0,29.85,WSW,243,3.0,6.0,44,0.00,,,-99.99,,2013-01-08 18:13:00,
2013-01-08 13:23:00,55.0,32.0,29.85,WSW,254,3.0,8.0,41,0.00,,,-99.99,,2013-01-08 18:23:00,
2013-01-08 13:33:00,54.0,33.0,29.85,WSW,252,3.0,7.0,44,0.00,,,-99.99,,2013-01-08 18:33:00,
2013-01-08 13:43:00,54.0,33.0,29.85,WSW,252,3.0,7.0,44,0.00,,,-99.99,,2013-01-08 18:43:00,
2013-01-08 13:53:00,54.0,33.0,29.85,West,259,3.0,8.0,44,0.00,,,-99.99,,2013-01-08 18:53:00,
2013-01-08 14:03:00,55.0,32.0,29.85,WSW,252,2.0,6.0,42,0.00,,,-99.99,,2013-01-08 19:03:00,
2013-01-08 14:12:00,55.0,32.0,29.85,WSW,252,2.0,6.0,42,0.00,,,-99.99,,2013-01-08 19:12:00,
2013-01-08 14:23:00,54.0,33.0,29.85,WSW,258,3.0,6.0,44,0.00,,,-99.99,,2013-01-08 19:23:00,
2013-01-08 14:32:00,54.0,33.0,29.85,WSW,255,3.0,8.0,44,0.00,,,-99.99,,2013-01-08 19:32:00,
2013-01-08 14:42:00,54.0,33.0,29.85,WSW,255,3.0,8.0,44,0.00,,,-99.99,,2013-01-08 19:42:00,
2013-01-08 14:53:00,55.0,33.0,29.85,WSW,257,3.0,7.0,43,0.00,,,-99.99,,2013-01-08 19:53:00,
2013-01-08 15:03:00,54.0,33.0,29.85,West,261,3.0,6.0,45,0.00,,,-99.99,,2013-01-08 20:03:00,
2013-01-08 15:12:00,54.0,33.0,29.85,West,261,3.0,6.0,45,0.00,,,-99.99,,2013-01-08 20:12:00,
2013-01-08 15:23:00,52.0,31.0,29.85,WSW,255,2.0,4.0,45,0.00,,,-99.99,,2013-01-08 20:23:00,
2013-01-08 15:33:00,51.0,31.0,29.85,WSW,255,3.0,7.0,47,0.00,,,-99.99,,2013-01-08 20:33:00,
2013-01-08 15:43:00,51.0,31.0,29.85,WSW,255,3.0,7.0,47,0.00,,,-99.99,,2013-01-08 20:43:00,
2013-01-08 15:54:00,49.0,31.0,29.85,WSW,256,3.0,5.0,49,0.00,,,-99.99,,2013-01-08 20:54:00,
2013-01-08 16:03:00,49.0,30.0,29.85,WSW,250,2.0,5.0,48,0.00,,,-99.99,,2013-01-08 21:03:00,
2013-01-08 16:13:00,49.0,30.0,29.85,WSW,250,2.0,5.0,48,0.00,,,-99.99,,2013-01-08 21:13:00,
2013-01-08 16:23:00,50.0,31.0,29.85,WSW,245,2.0,5.0,48,0.00,,,-99.99,,2013-01-08 21:23:00,
2013-01-08 16:33:00,50.0,31.0,29.85,WSW,245,2.0,5.0,48,0.00,,,-99.99,,2013-01-08 21:33:00,
2013-01-08 16:43:00,50.0,31.0,29.85,WSW,245,2.0,5.0,48,0.00,,,-99.99,,2013-01-08 21:43:00,
2013-01-08 16:53:00,44.0,30.0,29.85,WSW,255,3.0,5.0,58,0.00,,,-99.99,,2013-01-08 21:53:00,
2013-01-08 17:03:00,43.0,30.0,29.85,WSW,247,3.0,4.0,60,0.00,,,-99.99,,2013-01-08 22:03:00,
2013-01-08 17:12:00,43.0,30.0,29.85,WSW,247,3.0,4.0,60,0.00,,,-99.99,,2013-01-08 22:12:00,
2013-01-08 17:23:00,43.0,31.0,29.85,WSW,254,3.0,5.0,62,0.00,,,-99.99,,2013-01-08 22:23:00,
2013-01-08 17:33:00,42.0,30.0,29.85,WSW,252,2.0,5.0,63,0.00,,,-99.99,,2013-01-08 22:33:00,
2013-01-08 17:43:00,42.0,30.0,29.85,WSW,252,2.0,5.0,63,0.00,,,-99.99,,2013-01-08 22:43:00,
2013-01-08 17:53:00,42.0,31.0,29.85,West,260,1.0,4.0,65,0.00,,,-99.99,,2013-01-08 22:53:00,
2013-01-08 18:02:00,41.0,31.0,29.85,West,265,1.0,4.0,66,0.00,,,-99.99,,2013-01-08 23:02:00,
2013-01-08 18:13:00,41.0,31.0,29.85,West,265,1.0,4.0,66,0.00,,,-99.99,,2013-01-08 23:13:00,
2013-01-08 18:22:00,41.0,31.0,29.85,West,262,2.0,4.0,67,0.00,,,-99.99,,2013-01-08 23:22:00,
2013-01-08 18:33:00,40.0,31.0,29.85,WSW,251,2.0,4.0,69,0.00,,,-99.99,,2013-01-08 23:33:00,
2013-01-08 18:43:00,40.0,31.0,29.85,WSW,251,2.0,4.0,69,0.00,,,-99.99,,2013-01-08 23:43:00,
2013-01-08 18:53:00,40.0,31.0,29.85,WSW,254,2.0,5.0,70,0.00,,,-99.99,,2013-01-08 23:53:00,
2013-01-08 19:03:00,40.0,32.0,29.85,WSW,249,1.0,3.0,72,0.00,,,-99.99,,2013-01-09 00:03:00,
2013-01-08 19:12:00,40.0,32.0,29.85,WSW,249,1.0,3.0,72,0.00,,,-99.99,,2013-01-09 00:12:00,
2013-01-08 19:22:00,39.0,31.0,29.85,WSW,255,1.0,3.0,74,0.00,,,-99.99,,2013-01-09 00:22:00,
2013-01-08 19:33:00,39.0,31.0,29.86,West,264,1.0,4.0,74,0.00,,,-99.99,,2013-01-09 00:33:00,
2013-01-08 19:42:00,39.0,31.0,29.86,West,264,1.0,4.0,74,0.00,,,-99.99,,2013-01-09 00:42:00,
2013-01-08 19:53:00,39.0,31.0,29.88,WSW,257,2.0,3.0,74,0.00,,,-99.99,,2013-01-09 00:53:00,
2013-01-08 20:02:00,39.0,31.0,29.88,WSW,257,2.0,3.0,74,0.00,,,-99.99,,2013-01-09 01:02:00,
2013-01-08 20:12:00,39.0,31.0,29.88,WSW,257,2.0,3.0,74,0.00,,,-99.99,,2013-01-09 01:12:00,
2013-01-08 20:22:00,38.0,31.0,29.86,West,264,0.0,2.0,75,0.00,,,-99.99,,2013-01-09 01:22:00,
2013-01-08 20:33:00,38.0,31.0,29.86,West,264,0.0,2.0,75,0.00,,,-99.99,,2013-01-09 01:33:00,
2013-01-08 20:42:00,38.0,31.0,29.86,West,264,0.0,2.0,75,0.00,,,-99.99,,2013-01-09 01:42:00,
2013-01-08 20:52:00,38.0,31.0,29.88,WSW,245,1.0,2.0,75,0.00,,,-99.99,,2013-01-09 01:52:00,
2013-01-08 21:02:00,38.0,31.0,29.88,WSW,253,1.0,2.0,76,0.00,,,-99.99,,2013-01-09 02:02:00,
2013-01-08 21:12:00,38.0,31.0,29.88,WSW,253,1.0,2.0,76,0.00,,,-99.99,,2013-01-09 02:12:00,
2013-01-08 21:22:00,37.0,30.0,29.88,WSW,249,0.0,2.0,77,0.00,,,-99.99,,2013-01-09 02:22:00,
2013-01-08 21:33:00,37.0,31.0,29.85,WSW,249,0.0,1.0,79,0.00,,,-99.99,,2013-01-09 02:33:00,
2013-01-08 21:43:00,37.0,31.0,29.85,WSW,249,0.0,1.0,79,0.00,,,-99.99,,2013-01-09 02:43:00,
2013-01-08 21:53:00,37.0,32.0,29.85,WSW,245,0.0,1.0,81,0.00,,,-99.99,,2013-01-09 02:53:00,
2013-01-08 22:03:00,36.0,31.0,29.86,WSW,251,0.0,1.0,83,0.00,,,-99.99,,2013-01-09 03:03:00,
2013-01-08 22:12:00,36.0,31.0,29.86,WSW,251,0.0,1.0,83,0.00,,,-99.99,,2013-01-09 03:12:00,
2013-01-08 22:22:00,36.0,32.0,29.86,SSW,211,0.0,0.0,85,0.00,,,-99.99,,2013-01-09 03:22:00,
2013-01-08 22:33:00,36.0,32.0,29.86,SSW,210,0.0,0.0,85,0.00,,,-99.99,,2013-01-09 03:33:00,
2013-01-08 22:43:00,36.0,32.0,29.86,SSW,210,0.0,0.0,85,0.00,,,-99.99,,2013-01-09 03:43:00,
2013-01-08 22:53:00,35.0,31.0,29.86,SW,225,0.0,0.0,85,0.00,,,-99.99,,2013-01-09 03:53:00,
2013-01-08 23:02:00,33.0,29.0,29.88,WSW,247,0.0,0.0,86,0.00,,,-99.99,,2013-01-09 04:02:00,
2013-01-08 23:12:00,33.0,29.0,29.88,WSW,247,0.0,0.0,86,0.00,,,-99.99,,2013-01-09 04:12:00,
2013-01-08 23:22:00,33.0,30.0,29.88,WSW,247,0.0,0.0,89,0.00,,,-99.99,,2013-01-09 04:22:00,
2013-01-08 23:32:00,32.0,29.0,29.88,WSW,247,0.0,0.0,90,0.00,,,-99.99,,2013-01-09 04:32:00,
2013-01-08 23:42:00,31.0,29.0,29.88,WSW,246,0.0,0.0,91,0.00,,,-99.99,,2013-01-09 04:42:00,
2013-01-08 23:52:00,31.0,29.0,29.88,WSW,246,0.0,0.0,91,0.00,,,-99.99,,2013-01-09 04:52:00,